Content
SEND FEEDBACK

Daily
Averages
Monthly
Summary
United States of America

TAMUNING, GUAM


Home > North America > United States > Guam
Elevation: 250 feet     Latitude: 13 29N     Longitude: 144 47E

WEATHER
 
SELECT A DAY
Number of Records: 354,808;   Date Range: 1/1/95 - 11/27/14
 
SHARE

PRINT THIS DATA

[ ← Previous Day ]
WEATHER ALMANAC - JULY 12, 2013
[ Next Day → ]
[ °C ]   °F
Weather ElementAverageHighLow
Temperature81.5 °F85.1 °F (12:55 pm)77 °F (12:41 am)
Dewpoint75.9 °F79.2 °F (11:55 am)66 °F (8:55 pm)
Humidity83.3 %90 % (6:55 pm)62 % (8:55 pm)
Barometer29.82 in29.89 in (12:26 am)29.78 in (3:59 pm)
Wind Speed11.3 mph16.1 mph (3:57 pm)
Wind Gust20.7 mph (2:22 pm)
Weather ElementAverage
Visibility9.8 mi
Wind DirectionE (90.4 °)

Weather ElementTotal
Precipitation0.04 in
Cooling Degree Days16.1 (Base 65)
Growing Degree Days31.1 (Base 50)
Averaged from 67 records on July 12, 2013
WEATHER CONDITIONS BREAKOUT
WIND DIRECTION BREAKOUT
WEATHER BY HOUR - JULY 12, 2013
[ °C ]   °F
Local TimeTemperatureDewpointHumidityBarometerVisibilityWind DirectionWind SpeedGust SpeedPrecipitationEventsConditions
12:26 AM78.8 °F75.2 °F89 %29.89 in9.0 miEast (90°)11.5 mphMostly Cloudy
12:32 AM78.8 °F73.4 °F83 %29.89 in10.0 miENE (70°)13.8 mphScattered Clouds
12:41 AM77.0 °F73.4 °F89 %29.89 in10.0 miENE (70°)10.4 mphRainLight Rain
12:50 AM77.0 °F73.4 °F89 %29.88 in10.0 miENE (60°)9.2 mphScattered Clouds
12:55 AM77.0 °F72.9 °F87 %29.88 in10.0 miENE (60°)8.1 mph0.03 inScattered Clouds
1:55 AM78.4 °F73.6 °F85 %29.87 in10.0 miENE (60°)12.7 mphPartly Cloudy
2:55 AM78.6 °F72.5 °F81 %29.85 in10.0 miESE (110°)6.9 mphPartly Cloudy
3:55 AM79.5 °F71.2 °F76 %29.86 in10.0 miEast (90°)9.2 mphPartly Cloudy
4:38 AM78.8 °F68.0 °F69 %29.85 in10.0 miEast (80°)9.2 mphMostly Cloudy
4:42 AM80.6 °F69.8 °F70 %29.86 in10.0 miEast (80°)6.9 mphMostly Cloudy
4:55 AM79.9 °F70.5 °F73 %29.81 in10.0 miEast (100°)9.2 mphMostly Cloudy
4:57 AM80.6 °F71.6 °F74 %29.81 in10.0 miEast (90°)9.2 mphMostly Cloudy
5:17 AM80.6 °F73.4 °F79 %29.82 in10.0 miEast (90°)6.9 mphMostly Cloudy
5:18 AM80.6 °F73.4 °F79 %29.82 in10.0 miEast (90°)8.1 mphMostly Cloudy
5:23 AM80.6 °F73.4 °F79 %29.82 in10.0 miEast (90°)9.2 mphMostly Cloudy
5:55 AM79.5 °F73.4 °F81 %29.81 in10.0 miEast (80°)9.2 mphPartly Cloudy
6:38 AM80.6 °F75.2 °F84 %29.82 in7.0 miEast (80°)12.7 mphRainLight Rain
6:50 AM80.6 °F75.2 °F84 %29.83 in10.0 miEast (90°)10.4 mphPartly Cloudy
6:55 AM80.2 °F74.3 °F82 %29.82 in10.0 miEast (90°)10.4 mph0.00 inPartly Cloudy
7:55 AM81.1 °F75.4 °F83 %29.83 in10.0 miEast (80°)10.4 mphClear
8:55 AM82.9 °F77.2 °F83 %29.83 in10.0 miEast (100°)10.4 mphPartly Cloudy
9:35 AM84.2 °F77.0 °F79 %29.83 in10.0 miEast (90°)12.7 mphMostly Cloudy
9:40 AM84.2 °F77.0 °F79 %29.83 in10.0 miEast (90°)11.5 mphScattered Clouds
9:41 AM84.2 °F77.0 °F79 %29.83 in10.0 miEast (100°)10.4 mphMostly Cloudy
9:55 AM83.7 °F77.9 °F83 %29.83 in10.0 miEast (90°)12.7 mphMostly Cloudy
9:57 AM84.2 °F77.0 °F79 %29.83 in10.0 miEast (100°)11.5 mphScattered Clouds
10:00 AM84.2 °F78.8 °F84 %29.82 in10.0 miEast (90°)13.8 mphMostly Cloudy
10:03 AM84.2 °F78.8 °F84 %29.82 in10.0 miEast (90°)10.4 mphScattered Clouds
10:55 AM84.4 °F78.6 °F83 %29.82 in10.0 miEast (100°)8.1 mphScattered Clouds
10:59 AM84.2 °F78.8 °F84 %29.82 in10.0 miEast (90°)10.4 mphMostly Cloudy
11:04 AM84.2 °F78.8 °F84 %29.82 in10.0 miEast (80°)10.4 mphScattered Clouds
11:05 AM84.2 °F78.8 °F84 %29.81 in10.0 miEast (80°)9.2 mphMostly Cloudy
11:21 AM84.2 °F78.8 °F84 %29.82 in10.0 miEast (80°)11.5 mphMostly Cloudy
11:51 AM84.2 °F78.8 °F84 %29.81 in10.0 miEast (100°)10.4 mphMostly Cloudy
11:55 AM84.6 °F79.2 °F84 %29.82 in10.0 miEast (100°)12.7 mphMostly Cloudy
12:55 PM85.1 °F79.2 °F82 %29.81 in10.0 miEast (80°)13.8 mphMostly Cloudy
1:05 PM84.2 °F78.8 °F84 %29.81 in10.0 miEast (80°)12.7 mphMostly Cloudy
1:55 PM82.8 °F78.4 °F87 %29.79 in10.0 miENE (70°)12.7 mphMostly Cloudy
2:01 PM82.4 °F78.8 °F89 %29.80 in7.0 miEast (80°)13.8 mphRainRain
2:13 PM82.4 °F78.8 °F89 %29.80 in6.0 miEast (80°)11.5 mphMostly Cloudy
2:22 PM82.4 °F78.8 °F89 %29.79 in10.0 miEast (90°)12.7 mph20.7 mphScattered Clouds
2:53 PM82.4 °F78.8 °F89 %29.79 in10.0 miENE (70°)13.8 mphMostly Cloudy
2:55 PM82.6 °F79.2 °F89 %29.79 in10.0 miEast (80°)13.8 mph0.01 inMostly Cloudy
3:55 PM83.1 °F78.3 °F85 %29.79 in10.0 miEast (90°)15.0 mphMostly Cloudy
3:56 PM82.4 °F78.8 °F89 %29.79 in10.0 miEast (90°)15.0 mphScattered Clouds
3:57 PM82.4 °F78.8 °F89 %29.79 in10.0 miEast (90°)16.1 mphMostly Cloudy
3:59 PM82.4 °F78.8 °F89 %29.78 in10.0 miEast (100°)13.8 mphScattered Clouds
4:12 PM82.4 °F78.8 °F89 %29.78 in10.0 miEast (100°)16.1 mphMostly Cloudy
4:16 PM82.4 °F78.8 °F89 %29.78 in10.0 miEast (100°)16.1 mphScattered Clouds
4:55 PM82.0 °F77.2 °F85 %29.78 in10.0 miEast (100°)15.0 mphScattered Clouds
5:55 PM81.7 °F75.4 °F81 %29.79 in10.0 miEast (100°)11.5 mphClear
6:55 PM80.1 °F77.0 °F90 %29.79 in10.0 miEast (100°)11.5 mphScattered Clouds
7:55 PM80.1 °F76.8 °F90 %29.81 in10.0 miEast (100°)9.2 mphMostly Cloudy
8:28 PM80.6 °F77.0 °F89 %29.81 in10.0 miEast (90°)9.2 mphMostly Cloudy
8:35 PM80.6 °F75.2 °F84 %29.82 in10.0 miEast (100°)10.4 mphMostly Cloudy
8:55 PM80.2 °F66.0 °F62 %29.82 in10.0 miEast (100°)10.4 mphMostly Cloudy
9:55 PM80.2 °F74.7 °F83 %29.83 in10.0 miESE (110°)11.5 mphPartly Cloudy
10:08 PM80.6 °F75.2 °F84 %29.83 in10.0 miESE (110°)9.2 mphMostly Cloudy
10:26 PM80.6 °F75.2 °F84 %29.83 in10.0 miESE (110°)12.7 mphMostly Cloudy
10:55 PM80.1 °F75.6 °F86 %29.84 in10.0 miEast (100°)8.1 mphPartly Cloudy
11:22 PM80.6 °F75.2 °F84 %29.84 in10.0 miEast (100°)10.4 mphMostly Cloudy
11:29 PM80.6 °F75.2 °F84 %29.84 in10.0 miEast (100°)11.5 mphScattered Clouds
11:31 PM80.6 °F73.4 °F79 %29.84 in10.0 miEast (100°)12.7 mphMostly Cloudy
11:37 PM80.6 °F75.2 °F84 %29.84 in10.0 miEast (100°)10.4 mphMostly Cloudy
11:38 PM80.6 °F75.2 °F84 %29.83 in10.0 miEast (100°)11.5 mphMostly Cloudy
11:50 PM80.6 °F75.2 °F84 %29.83 in10.0 miEast (100°)11.5 mphScattered Clouds
11:55 PM80.4 °F74.7 °F83 %29.83 in10.0 miESE (110°)11.5 mphScattered Clouds
Hourly data recorded from PGUA, located miles away from Tamuning, Guam







STORIES FROM OUR PARTNERS